Temperature
21 20 21 23 23 22 21 20 20 20 20 20 20 20 19 19 19 18 19 19 19 19 19 18 18 18 19 19 19 18 18 18 18 18 18 18 17 17 17 18 18 18 18
21 19 20 22 23 22 21 21 20 20 19 20 20 20 19 19 19 18 18 18 18 18 18 18 18 18 18 18 18 18 18 18 18 18 18 18 17 17 17 17 18 18 18
20 20 20 21 22 22 21 21 20 20 19 19 19 19 19 19 18 18 18 18 18 18 18 18 18 18 18 18 18 18 18 18 18 18 18 18 17 17 17 17 17 18 18
21 21 22 21 21 21 21 21 20 19 19 19 19 19 19 19 19 18 18 18 18 18 18 18 18 18 17 17 17 17 17 17 17 17 17 18 18 18 18 17 17 18 18
21 22 21 21 21 21 21 21 20 19 20 19 19 18 18 18 18 19 19 18 18 18 18 18 18 18 18 18 18 18 17 17 17 17 17 17 18 17 18 18 17 17 18
22 22 20 21 21 20 20 20 19 19 19 19 19 18 18 18 18 17 18 18 18 17 17 18 17 18 18 18 18 18 18 17 17 17 17 17 17 17 17 17 17 18 18
22 21 21 20 20 19 19 20 19 18 18 18 18 18 17 18 18 17 17 17 17 18 17 18 17 18 17 17 17 17 17 17 18 18 17 18 18 18 18 18 18 18 18
22 21 20 20 20 20 19 20 19 18 18 18 17 17 17 17 17 17 17 17 17 17 18 17 18 17 17 17 17 17 17 17 17 17 17 17 17 17 17 18 18 18 18
21 20 20 20 19 19 19 19 19 18 18 17 17 17 17 17 17 17 17 17 17 17 17 17 17 17 17 17 17 17 17 16 17 17 17 17 17 17 17 18 18 18 18
19 19 19 19 19 19 19 19 18 18 18 17 17 17 17 17 17 17 17 17 17 17 17 17 16 16 16 16 17 17 17 17 17 17 17 17 18 18 18 18 17 17 18
19 19 19 20 20 20 20 19 19 18 18 17 17 17 17 17 17 17 17 17 17 16 16 17 17 17 17 17 17 17 17 17 17 17 17 17 18 18 18 18 18 17 17
19 20 22 21 21 21 20 19 18 17 17 17 17 17 17 17 17 17 17 17 17 17 17 17 17 17 17 17 17 17 17 17 17 17 17 17 17 17 17 18 18 18 18
20 21 22 22 22 21 21 20 19 17 16 16 16 16 16 16 16 16 16 16 16 17 17 17 17 17 17 17 17 17 17 17 17 17 17 17 17 17 17 17 17 17 18
21 22 22 22 22 22 21 19 18 17 16 16 16 16 16 16 16 16 16 16 16 16 16 16 16 16 16 16 17 17 17 17 18 18 18 18 17 17 17 17 16 16 16
21 22 22 22 21 21 20 19 19 18 17 16 16 16 16 16 16 16 16 16 16 16 16 16 16 16 16 16 16 16 17 17 17 18 18 18 18 17 17 16 15 15 15
21 21 22 21 21 20 19 19 19 18 17 16 16 16 15 15 15 15 16 16 16 16 16 16 16 16 15 15 15 16 16 16 17 17 18 18 18 17 17 15 14 14 15
21 21 21 21 21 20 19 19 19 18 17 16 16 16 15 15 15 15 15 16 15 15 15 15 15 15 15 15 15 15 16 16 16 16 17 17 17 16 16 15 15 15 15
21 20 20 21 21 20 19 19 18 17 16 16 15 15 15 15 15 15 15 15 14 14 14 14 13 13 14 14 14 15 16 16 16 16 16 16 16 15 15 16 16 15 15
21 21 21 21 21 20 20 19 18 16 16 15 15 15 15 15 14 14 14 14 14 13 13 13 13 13 13 13 14 15 16 16 16 16 16 16 15 15 14 15 15 15 14
21 20 20 20 19 19 18 18 17 16 15 15 15 15 15 15 14 14 14 14 13 13 13 13 13 13 13 13 13 13 14 15 15 16 16 16 15 15 14 14 14 14 13
20 19 19 19 18 17 17 17 16 16 15 15 15 15 14 14 14 14 13 13 13 13 13 13 13 14 13 12 12 13 14 14 14 15 15 16 15 15 14 13 13 12 12
19 19 19 18 17 16 16 16 16 16 15 15 14 14 14 14 14 14 14 13 13 13 13 12 12 12 12 11 11 11 11 11 12 12 12 13 14 13 13 12 12 11 11
18 19 18 17 17 16 16 16 15 15 14 14 14 14 14 14 14 15 14 13 13 12 12 11 11 10 10 10 10 9 9 10 9 10 10 10 10 10 11 10 10 10 10
18 18 18 18 17 16 15 15 14 14 14 14 14 14 14 14 14 13 12 12 12 11 11 11 11 10 10 9 9 9 9 8 8 8 9 9 9 9 9 9 9 9 9
18 18 17 16 15 15 14 14 14 14 14 14 13 13 13 12 12 11 11 10 10 10 10 10 9 9 8 8 7 7 7 7 7 7 7 8 8 8 8 8 8 9 9
15 15 14 14 14 15 15 14 13 13 12 12 11 11 11 10 10 10 10 10 9 9 9 9 8 8 8 7 7 6 5 5 6 6 6 6 7 7 7 7 8 8 8
Wind_Speed
5 9 13 17 17 10 7 6 8 10 11 11 11 11 12 13 12 11 11 11 11 10 8 7 7 6 6 7 7 6 6 5 4 4 2 3 4 6 7 6 6 5 6
5 2 5 8 17 13 11 9 8 8 10 10 11 11 10 10 9 8 7 8 8 8 7 6 6 6 5 4 4 3 3 3 2 1 1 1 3 5 7 8 8 8 9
7 8 4 4 9 12 12 10 10 10 9 10 10 10 8 7 6 6 5 4 4 4 4 3 2 3 2 3 4 4 4 4 4 4 4 3 3 4 7 9 10 11 11
3 1 5 5 6 8 10 10 10 10 11 10 9 10 9 7 6 4 3 2 2 2 2 2 2 3 3 3 4 5 5 6 6 5 4 4 5 6 7 9 12 13 14
2 5 4 7 10 9 8 11 10 12 12 11 10 10 8 5 5 7 7 4 5 4 3 1 1 2 3 4 5 6 7 7 8 6 5 6 6 8 9 5 12 15 16
4 8 4 4 7 9 8 10 6 7 9 11 11 10 7 3 2 6 3 2 4 5 4 4 5 5 6 6 7 7 7 7 7 7 6 8 9 10 11 8 11 15 16
5 6 7 4 3 5 7 10 5 4 5 6 7 9 8 7 4 8 5 5 3 3 4 3 3 5 8 8 8 9 9 9 8 6 8 7 9 11 12 12 13 16 19
4 4 6 4 3 3 4 8 5 3 3 3 4 6 6 6 6 7 2 3 4 3 5 8 5 7 8 7 8 8 9 9 8 6 8 8 9 12 14 15 15 15 15
3 4 5 3 3 4 8 10 7 5 4 3 4 5 5 3 2 2 1 2 2 6 7 7 7 5 4 7 9 10 12 12 10 8 8 8 11 12 13 14 14 14 12
4 4 4 5 5 5 8 9 9 10 9 7 6 4 2 3 4 4 2 3 8 10 9 8 4 5 10 13 14 12 10 9 8 8 8 10 14 14 14 14 13 13 13
5 4 4 4 4 6 7 8 9 8 8 7 6 6 6 5 4 4 3 4 6 7 8 9 9 10 11 13 15 15 12 9 7 6 6 10 14 15 16 15 15 15 15
6 5 4 4 4 5 6 7 6 5 5 4 3 3 4 4 4 6 5 6 7 8 8 10 12 12 12 11 12 13 11 11 8 6 7 10 12 14 16 17 17 16 16
7 7 6 6 6 5 4 4 3 3 3 2 0 1 3 5 5 5 5 7 8 8 9 10 9 9 10 9 9 10 11 11 9 9 10 14 16 16 16 16 17 18 17
9 9 8 6 5 5 5 3 1 1 1 1 1 2 4 4 4 4 4 5 7 7 7 6 6 7 9 10 10 11 13 13 13 12 13 17 18 18 18 18 17 17 18
10 8 7 6 5 3 3 3 2 1 2 3 4 3 4 4 3 3 2 2 3 4 4 5 6 7 8 10 11 10 12 14 15 14 14 17 18 17 17 17 17 18 19
9 7 5 5 4 4 3 3 3 4 4 4 2 2 3 4 3 2 1 1 3 3 4 5 5 5 6 7 8 9 11 13 14 16 17 19 18 16 14 14 16 18 19
9 7 7 6 5 5 5 4 4 4 4 2 1 0 2 2 1 0 2 3 6 7 8 8 7 7 6 6 7 8 11 12 12 15 16 15 14 14 13 13 13 15 17
8 8 7 7 7 7 6 4 3 3 3 3 3 3 3 3 2 2 2 4 8 10 9 7 7 7 7 7 7 8 8 9 10 12 12 11 10 10 11 11 13 13 13
9 9 9 8 8 9 7 4 2 1 0 1 2 4 6 8 9 8 6 8 11 9 6 6 6 6 7 9 9 9 8 8 8 8 7 8 9 10 11 10 9 9 12
6 4 3 2 5 5 5 5 4 4 4 7 8 8 9 10 11 8 6 7 8 5 6 6 6 8 8 10 10 11 9 8 8 7 6 6 6 8 8 7 5 7 12
8 8 8 9 9 6 4 2 3 3 3 4 7 9 10 10 10 7 4 4 4 4 7 9 7 9 8 7 8 9 9 9 8 7 5 5 5 6 7 7 6 7 9
9 10 10 9 8 5 4 3 3 3 3 3 2 4 6 5 4 3 2 3 4 5 7 7 7 7 6 5 6 9 9 10 6 5 6 6 6 6 7 6 6 6 8
9 9 9 8 8 6 6 5 4 4 2 2 2 2 2 2 3 3 3 4 5 4 5 6 6 5 7 5 5 6 6 10 9 7 5 6 6 7 6 6 6 7 9
8 9 9 9 9 7 6 5 4 2 1 3 3 4 4 6 7 8 8 7 5 4 4 4 5 4 6 7 6 7 9 10 8 10 7 6 7 7 7 6 8 10 11
8 8 8 8 8 6 7 6 5 2 2 3 3 5 6 6 8 10 10 8 6 5 6 6 5 5 5 9 8 6 6 6 8 9 15 13 9 7 7 7 9 9 9
8 8 7 8 7 5 6 5 3 2 3 4 4 5 6 6 6 8 11 9 7 6 6 7 8 8 8 11 11 10 9 9 8 8 11 18 15 11 9 8 9 8 7
Wind_Direction
216 209 185 148 128 127 127 124 123 125 124 121 114 111 119 124 125 131 137 141 144 148 148 143 145 150 154 156 150 139 126 115 110 108 117 135 157 161 164 168 176 177 178
81 337 208 146 123 133 141 141 133 131 129 129 127 124 123 122 123 132 147 152 153 154 156 162 168 171 174 169 153 139 132 133 142 143 211 168 193 193 195 204 207 194 194
62 0 337 114 113 127 135 143 144 143 138 137 135 129 122 123 131 143 156 156 143 140 139 136 131 123 79 39 21 17 16 15 13 0 353 8 314 249 223 220 211 200 206
68 30 87 109 108 113 128 139 150 151 146 141 139 136 133 137 141 148 140 143 146 139 132 117 76 36 23 12 350 341 346 347 347 348 2 355 338 319 310 244 207 210 215
27 92 117 153 133 128 145 146 159 163 155 155 150 144 140 151 178 179 171 182 217 201 185 197 244 271 280 293 306 313 324 331 329 338 341 331 326 319 328 274 220 226 219
72 86 113 104 121 134 150 141 158 167 165 172 161 145 136 143 317 298 268 232 240 244 233 225 223 246 264 276 292 303 308 311 320 328 328 325 322 319 318 308 273 258 236
106 99 98 70 64 111 158 134 149 179 185 185 164 144 154 164 193 271 305 316 304 273 291 292 287 286 283 290 299 303 301 304 309 317 316 316 311 307 308 301 298 283 246
75 88 99 94 68 64 89 106 129 166 194 190 158 145 163 188 201 233 266 291 297 330 339 316 313 292 291 311 318 323 326 328 325 324 318 318 313 310 313 306 298 308 268
99 110 105 99 110 98 82 81 89 86 84 109 136 151 172 189 172 155 157 297 300 52 33 12 22 338 27 40 30 37 31 19 12 6 348 343 327 323 323 317 306 308 310
114 94 86 90 91 87 86 87 89 91 86 80 75 87 103 99 115 120 124 69 67 68 64 72 62 63 62 47 39 41 39 26 9 0 346 343 339 340 342 338 328 314 307
109 94 94 104 106 97 93 98 96 92 87 81 73 67 76 76 82 85 74 69 64 65 60 56 50 46 39 32 31 32 30 19 8 343 332 335 339 339 337 336 334 327 316
145 161 156 151 122 99 90 91 90 91 89 88 83 75 71 70 72 69 63 63 54 45 44 42 38 32 27 20 15 13 8 2 357 337 337 333 331 336 333 332 330 322 315
161 181 182 167 152 136 121 123 116 109 103 104 64 8 64 70 56 52 57 51 40 34 29 28 21 18 12 4 354 351 346 343 337 338 337 334 329 329 331 329 325 320 317
181 190 182 175 167 156 144 137 108 99 124 178 193 133 109 97 77 66 58 38 28 19 17 9 359 351 349 347 343 339 339 340 333 329 328 330 328 324 326 328 324 321 319
193 191 181 169 160 127 119 126 145 201 181 161 147 146 133 128 120 118 105 52 20 8 3 344 339 338 337 334 328 329 328 330 327 325 322 326 327 323 320 323 326 327 325
199 186 172 172 154 141 154 169 183 187 172 161 182 194 149 139 134 137 158 285 282 282 292 311 323 325 318 316 309 316 317 317 318 324 325 322 323 320 316 321 326 329 326
188 166 169 177 178 179 188 189 187 189 175 181 234 155 136 135 141 160 263 280 281 293 308 321 324 324 317 314 307 307 308 306 306 309 312 310 311 310 308 314 321 322 325
160 157 171 188 183 193 196 193 196 203 191 199 198 212 207 212 237 309 320 306 316 322 326 329 321 317 309 299 292 292 284 286 286 292 298 301 306 309 304 306 311 316 331
156 160 189 196 194 200 197 179 151 146 44 351 354 341 348 358 0 354 344 340 342 336 330 324 313 303 298 290 282 283 278 274 270 279 287 297 307 316 313 311 320 329 338
117 139 222 337 1 6 21 35 42 47 36 33 31 37 40 37 30 20 359 346 350 339 326 320 306 298 284 286 292 290 279 272 270 266 267 273 289 303 304 305 313 330 335
87 75 50 48 48 55 59 65 77 69 67 61 57 60 61 56 49 44 19 342 334 324 309 306 315 315 310 297 297 299 293 288 284 269 254 267 279 291 299 310 318 331 336
91 92 89 96 100 92 92 80 90 105 120 128 105 68 63 63 53 38 339 304 298 305 307 318 326 312 297 283 296 311 304 299 280 285 283 288 292 299 304 306 312 320 329
84 88 96 107 106 113 126 116 95 88 55 340 327 321 320 342 342 350 338 313 313 321 320 321 311 300 301 300 277 277 298 293 310 283 261 268 286 295 292 298 300 294 299
78 88 102 111 111 115 124 124 110 87 314 296 297 302 317 336 343 350 345 330 312 303 289 275 266 271 285 295 284 250 257 281 290 296 274 263 262 260 275 287 289 289 283
76 89 95 91 77 62 56 52 60 46 302 294 305 318 328 333 343 340 334 319 303 295 285 281 270 264 272 287 284 275 272 272 266 271 288 289 282 269 260 261 274 276 268
63 72 78 83 72 58 56 46 53 13 329 330 329 332 332 327 327 325 323 314 303 295 283 271 263 262 265 271 273 264 260 257 258 259 277 285 286 280 266 257 258 244 248
Height
1519 1521 1525 1525 1525 1527 1530 1532 1533 1535 1538 1539 1538 1539 1541 1542 1542 1544 1545 1546 1546 1547 1547 1548 1549 1551 1551 1552 1551 1552 1552 1552 1552 1552 1552 1552 1552 1551 1551 1550 1549 1550 1550
1519 1523 1526 1528 1525 1528 1530 1532 1533 1535 1537 1539 1540 1540 1542 1543 1543 1545 1547 1547 1548 1548 1548 1549 1550 1550 1551 1551 1551 1551 1551 1551 1552 1552 1552 1551 1551 1551 1551 1550 1550 1551 1550
1516 1520 1525 1529 1529 1528 1530 1532 1534 1537 1537 1538 1540 1541 1543 1544 1545 1546 1548 1549 1549 1549 1549 1549 1550 1550 1550 1550 1550 1550 1550 1550 1551 1551 1551 1551 1551 1551 1551 1551 1550 1550 1551
1519 1524 1527 1530 1531 1531 1531 1533 1536 1538 1539 1539 1540 1542 1543 1545 1546 1547 1549 1549 1550 1550 1550 1549 1549 1550 1551 1551 1551 1551 1550 1550 1550 1550 1550 1551 1550 1550 1550 1550 1551 1550 1550
1522 1526 1530 1532 1532 1533 1534 1534 1536 1538 1539 1540 1541 1544 1546 1546 1546 1547 1548 1550 1551 1551 1551 1551 1551 1551 1552 1552 1551 1551 1551 1550 1550 1549 1549 1549 1549 1549 1549 1549 1549 1549 1549
1524 1526 1531 1533 1532 1534 1535 1534 1536 1538 1540 1541 1542 1544 1548 1550 1549 1550 1548 1549 1551 1553 1554 1552 1552 1553 1553 1551 1551 1550 1550 1550 1549 1548 1547 1547 1547 1547 1547 1547 1548 1548 1547
1525 1527 1531 1533 1533 1535 1536 1535 1537 1539 1541 1542 1543 1544 1547 1548 1546 1552 1550 1551 1552 1553 1553 1553 1551 1552 1554 1550 1549 1549 1549 1549 1548 1547 1546 1545 1544 1545 1545 1544 1544 1544 1544
1528 1530 1532 1533 1534 1536 1536 1536 1537 1540 1540 1542 1543 1545 1546 1548 1548 1549 1550 1552 1553 1553 1553 1553 1552 1552 1553 1550 1548 1548 1548 1547 1546 1545 1545 1543 1541 1540 1540 1541 1540 1540 1540
1530 1532 1534 1534 1536 1537 1538 1537 1539 1540 1541 1543 1544 1545 1546 1547 1548 1548 1550 1551 1552 1551 1553 1552 1550 1553 1551 1547 1547 1546 1546 1545 1545 1543 1542 1540 1539 1537 1536 1537 1536 1536 1536
1531 1533 1534 1536 1538 1539 1539 1539 1540 1541 1542 1543 1543 1545 1547 1548 1549 1549 1550 1551 1552 1551 1551 1550 1551 1551 1550 1547 1547 1546 1545 1544 1543 1541 1540 1538 1537 1535 1533 1533 1533 1532 1532
1532 1533 1535 1537 1538 1539 1540 1540 1541 1541 1542 1544 1545 1546 1548 1549 1550 1550 1550 1551 1550 1550 1549 1549 1550 1550 1548 1547 1546 1546 1544 1543 1540 1539 1536 1535 1534 1533 1532 1531 1529 1529 1528
1532 1534 1536 1538 1539 1540 1540 1540 1540 1541 1542 1544 1545 1546 1548 1549 1550 1549 1550 1549 1549 1549 1549 1548 1549 1549 1547 1546 1546 1545 1543 1541 1540 1538 1535 1533 1531 1529 1529 1527 1525 1525 1523
1533 1535 1538 1540 1540 1540 1540 1540 1541 1541 1542 1543 1545 1547 1548 1549 1550 1550 1550 1549 1549 1549 1549 1549 1551 1549 1548 1547 1546 1543 1541 1539 1538 1536 1533 1531 1528 1525 1524 1522 1520 1520 1518
1532 1535 1537 1539 1540 1541 1541 1541 1541 1542 1542 1544 1546 1547 1548 1549 1550 1551 1551 1550 1549 1550 1549 1550 1551 1550 1549 1548 1545 1543 1540 1538 1537 1534 1532 1530 1526 1523 1520 1518 1518 1516 1513
1532 1535 1538 1540 1541 1542 1542 1542 1542 1542 1542 1544 1546 1547 1548 1548 1548 1549 1549 1549 1551 1551 1551 1552 1551 1549 1547 1546 1545 1542 1540 1537 1535 1533 1531 1528 1524 1521 1518 1516 1514 1511 1509
1532 1535 1538 1540 1542 1542 1542 1543 1543 1542 1543 1545 1546 1547 1547 1548 1548 1548 1549 1551 1552 1552 1552 1551 1549 1547 1546 1544 1542 1540 1537 1534 1532 1530 1527 1525 1522 1518 1514 1512 1510 1507 1506
1530 1534 1537 1540 1540 1541 1542 1543 1542 1542 1543 1545 1545 1546 1546 1548 1549 1550 1551 1552 1552 1552 1551 1549 1547 1546 1544 1542 1539 1536 1533 1530 1529 1527 1524 1521 1518 1515 1511 1508 1506 1504 1503
1529 1534 1538 1539 1540 1541 1543 1544 1544 1544 1544 1545 1546 1546 1548 1549 1550 1551 1550 1551 1551 1550 1549 1547 1546 1544 1541 1538 1534 1531 1528 1525 1522 1520 1519 1516 1514 1511 1507 1504 1501 1499 1498
1529 1534 1537 1540 1541 1542 1542 1543 1543 1544 1545 1546 1546 1546 1547 1548 1548 1548 1549 1548 1546 1545 1544 1542 1541 1539 1536 1533 1528 1524 1521 1518 1515 1513 1511 1509 1507 1505 1502 1499 1496 1493 1491
1530 1535 1539 1541 1542 1542 1542 1541 1542 1544 1545 1546 1546 1546 1546 1546 1545 1545 1545 1544 1543 1542 1541 1538 1535 1533 1531 1527 1521 1516 1514 1510 1508 1506 1504 1502 1500 1498 1496 1493 1490 1487 1484
1528 1532 1536 1538 1540 1540 1540 1541 1542 1543 1543 1544 1544 1544 1545 1544 1543 1542 1540 1539 1537 1535 1534 1533 1528 1524 1520 1519 1513 1506 1503 1503 1501 1499 1497 1495 1493 1491 1488 1486 1484 1481 1477
1526 1529 1532 1537 1540 1542 1542 1542 1543 1542 1541 1541 1541 1542 1542 1541 1540 1538 1536 1533 1531 1528 1525 1523 1521 1516 1513 1514 1509 1501 1494 1492 1491 1490 1488 1488 1485 1483 1481 1479 1478 1475 1472
1525 1528 1532 1536 1539 1541 1542 1542 1542 1542 1542 1541 1541 1540 1539 1538 1536 1532 1530 1527 1524 1521 1519 1518 1517 1513 1509 1506 1505 1502 1494 1484 1484 1480 1479 1478 1476 1475 1474 1472 1472 1470 1465
1525 1529 1531 1534 1536 1539 1541 1541 1540 1541 1541 1540 1538 1536 1534 1532 1529 1527 1525 1524 1521 1517 1513 1511 1509 1507 1503 1498 1495 1493 1490 1484 1478 1469 1468 1470 1466 1464 1465 1464 1464 1463 1458
1527 1529 1531 1533 1535 1537 1537 1537 1537 1538 1538 1535 1533 1531 1530 1528 1525 1522 1520 1518 1516 1511 1507 1504 1500 1497 1495 1490 1485 1482 1479 1475 1473 1470 1462 1459 1458 1457 1456 1455 1454 1455 1451
1530 1532 1533 1534 1535 1535 1535 1534 1534 1534 1533 1531 1528 1526 1525 1523 1520 1518 1514 1510 1507 1504 1499 1495 1492 1487 1484 1482 1477 1473 1471 1468 1464 1464 1460 1452 1449 1448 1447 1447 1446 1447 1444